Location: Newark
(35.5000°N, 109.0000°E)
Time: 20:45:32
(UTC+00:00)

N. Korean satellite - Pass Details

Date: 28 September 2020
Orbit: 452 x 505 km, 97.2° (Epoch: 28 October)

Event Time Altitude Azimuth Distance (km) Brightness Sun altitude
Rises 21:19:32 0° 32° (NNE) 2,562 10.9 -16.6°
Reaches altitude 10° 21:22:20 10° 56° (ENE) 1,663 10.3 -16.0°
Maximum altitude 21:24:29 15° 93° (E) 1,362 10.0 -15.6°
Drops below altitude 10° 21:26:35 10° 131° (SE) 1,637 9.8 -15.2°
Sets 21:29:18 0° 155° (SSE) 2,495 10.4 -14.6°
